Regional Weather Roundup
Issued by NWS

Home | Current Version | Previous Version | Graphics & Text | Print | Product List | Glossary On
Versions: 1 2 3 4 5 6 7 8 9 10 11 12 13 14 15 16 17 18 19 20 21 22 23 24 25 26 27 28 29 30 31 32 33 34 35 36 37 38 39 40 41 42 43 44 45 46 47 48 49 50
884
ASUS43 KFSD 272210
RWRSD

WEATHER ROUNDUP FOR SOUTH DAKOTA
NATIONAL WEATHER SERVICE SIOUX FALLS SD
500 PM CDT THU JUL 27 2017

NOTE: "FAIR" INDICATES FEW OR NO CLOUDS BELOW 12,000 FEET WITH NO
SIGNIFICANT WEATHER AND/OR OBSTRUCTIONS TO VISIBILITY.


SDZ001>005-009-010-012>017-272300-
NORTHWEST AND NORTH CENTRAL SOUTH DAKOTA

CITY           SKY/WX    TMP DP  RH WIND       PRES   REMARKS
BUFFALO          N/A     70  56  61 S20       30.03F
FAITH            N/A     69  61  75 W13       30.10R
MOBRIDGE       FAIR      84  62  47 S8        30.04F
$$

SDZ012>016-024>037-041>051-057-063-072>074-272300-
SOUTHWEST AND SOUTH CENTRAL SOUTH DAKOTA

CITY           SKY/WX    TMP DP  RH WIND       PRES   REMARKS
RAPID CTY ARPT FAIR      78  55  44 S23       30.07F
PIERRE         FAIR      87  54  32 E12       30.03F
CUSTER         FAIR      63  50  62 E15       30.19F
ELLSWORTH AFB  FAIR      80  54  40 S22G30    30.07F
PHILIP         PTSUNNY   84  54  35 SE12      30.04F
PINE RIDGE     LGT RAIN  72  57  59 E10       30.09F
SPEARFISH      RAIN      64  63  94 SE16      30.06S
WINNER         FAIR      86  57  37 VRB5      30.07F
$$

SDZ004>011-016>023-039-040-272300-
NORTHEAST SOUTH DAKOTA

CITY           SKY/WX    TMP DP  RH WIND       PRES   REMARKS
ABERDEEN       FAIR      83  58  42 VRB6      30.07F
WATERTOWN      PTSUNNY   80  59  48 MISG      30.08F
BROOKINGS      FAIR      80  59  48 CALM      30.09F
SISSETON         N/A     84  60  44 NE6       30.06F
$$

SDZ017-020-022-023-036>040-048>070-272300-
SOUTHEAST SOUTH DAKOTA

CITY           SKY/WX    TMP DP  RH WIND       PRES   REMARKS
SIOUX FALLS    FAIR      83  63  50 NE8       30.06F
HURON          FAIR      82  59  45 E5        30.06F
CHAMBERLAIN    FAIR      87  57  36 SE7       30.07F
MITCHELL       FAIR      83  63  50 N8        30.07F
YANKTON        FAIR      83  61  47 E7        30.05F
$$

ABBREVIATIONS USED IN REMARKS
   TC - TEMPERATURE IN CELSIUS
  WCI - WIND CHILL INDEX
   HX - HEAT INDEX
  VSB - VISIBILITY





USA.gov is the U.S. government's official web portal to all federal, state and local government web resources and services.